This is the latest recevied weather packets stored in our database for station/object K9MWD. If no packets are shown the sender has not sent any weather packets the latest 10 day(s).
| Time | Temp. | Humidity | Pressure | Rain* | Wind** | Luminosity | Snow |
|---|---|---|---|---|---|---|---|
| 1777747508 | 22.78° C | 37% | 1021.3 hPa | 0 mm | - | 910 W/m² | - |
| 1777747204 | 22.78° C | 35% | 1021.4 hPa | 0 mm | - | 915 W/m² | - |
| 1777746901 | 24.44° C | 36% | 1021.4 hPa | 0 mm | - | 916 W/m² | - |
| 1777746595 | 23.33° C | 34% | 1021.3 hPa | 0 mm | - | 913 W/m² | - |
| 1777746292 | 23.33° C | 36% | 1021.7 hPa | 0 mm | - | 921 W/m² | - |
| 1777745988 | 23.89° C | 36% | 1021.7 hPa | 0 mm | - | 922 W/m² | - |
| 1777745686 | 23.33° C | 37% | 1021.8 hPa | 0 mm | - | 919 W/m² | - |
| 1777745385 | 22.78° C | 34% | 1021.8 hPa | 0 mm | - | 919 W/m² | - |
| 1777745081 | 22.78° C | 37% | 1022 hPa | 0 mm | - | 920 W/m² | - |
| 1777744778 | 23.33° C | 36% | 1022 hPa | 0 mm | - | 919 W/m² | - |
| 1777744472 | 22.78° C | 38% | 1022 hPa | 0 mm | - | 911 W/m² | - |
| 1777744169 | 22.22° C | 37% | 1021.9 hPa | 0 mm | - | 912 W/m² | - |
| 1777743866 | 22.22° C | 38% | 1022 hPa | 0 mm | - | 909 W/m² | - |
| 1777743562 | 22.22° C | 38% | 1022.2 hPa | 0 mm | - | 908 W/m² | - |
| 1777743259 | 22.22° C | 39% | 1022.4 hPa | 0 mm | - | 906 W/m² | - |
| 1777742958 | 22.22° C | 39% | 1022.2 hPa | 0 mm | - | 898 W/m² | - |
| 1777742654 | 22.22° C | 38% | 1022.2 hPa | 0 mm | - | 895 W/m² | - |
| 1777742350 | 22.78° C | 37% | 1022.3 hPa | 0 mm | - | 888 W/m² | - |
| 1777742046 | 22.78° C | 40% | 1022.4 hPa | 0 mm | - | 879 W/m² | - |
| 1777741744 | 22.22° C | 40% | 1022.5 hPa | 0 mm | - | 874 W/m² | - |
| 1777741440 | 22.22° C | 42% | 1022.5 hPa | 0 mm | - | 870 W/m² | - |
| 1777741136 | 21.67° C | 41% | 1022.6 hPa | 0 mm | - | 860 W/m² | - |
| 1777740834 | 21.67° C | 41% | 1022.6 hPa | 0 mm | - | 851 W/m² | - |
| 1777740530 | 22.22° C | 42% | 1022.5 hPa | 0 mm | - | 845 W/m² | - |
| 1777740227 | 21.67° C | 42% | 1022.4 hPa | 0 mm | - | 835 W/m² | - |
* Rain latest hour (hover to see other rain measurements)
** Current wind speed in m/s (hover to see current wind gust speed)